Вернуться в каталог

STARLINK-5707

АктивенСвязьVLEO
NORAD 56879·PAYLOAD·🇺🇸 United States

Запущен Jun 12, 2023 с Cape Canaveral Space Force Station

Loading…

Ближайшие Пролёты (ближайшие 24 часа)

TLE

СвежийSource: CelesTrak SupGP

Эпоха: Sep 15, 2026, 03:05 UTC

1 56879C 23083D   26258.12895833 -.00004353  00000+0 -15764-3 0  2583
2 56879  43.0001  95.6923 0001707 256.6335 281.5116 15.27586052    10

Отслеживайте STARLINK-5707 в реальном времени с AllMySat

Download on the App Store